Location: Gairloch Mountain Observatory
(46.1383°N, 60.9640°W)
Time: 03:49:57
(UTC-03:00)

CENTAUR R/B - Visible Passes

Search period start: 30 May 2016 00:00
Search period end: 09 June 2016 00:00
Orbit: 857 x 1332 km, 63.5° (Epoch: 04 May)

Date Brightness Start Highest point End Pass type
(mag) Time Alt. Az. Time Alt. Az. Time Alt. Az.
30 May 4.2 00:16:33 15° ESE 00:17:05 15° ESE 00:20:42 10° ENE visible
30 May 2.5 02:03:42 37° SSW 02:06:27 81° SE 02:13:27 10° NE visible
30 May 4.1 03:52:12 10° W 03:57:57 32° NNW 04:04:20 10° NNE visible
31 May 2.8 01:16:40 40° SSE 01:18:25 51° ESE 01:25:02 10° NE visible
31 May 3.6 03:03:49 13° WSW 03:09:16 43° NW 03:16:03 10° NNE visible
01 Jun 3.4 00:29:35 29° SE 00:30:35 31° ESE 00:36:21 10° NE visible
01 Jun 3.0 02:16:44 23° WSW 02:20:46 61° NW 02:27:48 10° NE visible
01 Jun 4.6 04:07:40 10° WNW 04:13:00 24° NNW 04:18:50 10° NNE visible
01 Jun 4.0 23:42:26 18° ESE 23:42:57 18° ESE 23:47:08 10° ENE visible
02 Jun 2.5 01:29:35 35° SW 01:32:28 89° SE 01:39:30 10° NE visible
02 Jun 4.2 03:18:26 10° W 03:24:07 30° NNW 03:30:24 10° NNE visible
03 Jun 2.7 00:42:23 41° S 00:44:23 57° ESE 00:51:08 10° NE visible
03 Jun 3.7 02:29:31 10° WSW 02:35:24 40° NW 02:42:06 10° NNE visible
03 Jun 4.9 04:23:12 10° NW 04:28:14 21° N 04:33:40 10° NE visible
03 Jun 3.2 23:55:06 31° SE 23:56:31 35° ESE 00:02:32 10° NE visible
04 Jun 3.1 01:42:14 19° WSW 01:46:51 56° NW 01:53:50 10° NE visible
04 Jun 4.7 03:33:56 10° WNW 03:39:12 23° NNW 03:44:56 10° NE visible
04 Jun 3.8 23:07:45 20° ESE 23:08:49 20° ESE 23:13:30 10° ENE visible
05 Jun 2.6 00:54:52 28° SW 00:58:30 83° NW 01:05:34 10° NE visible
05 Jun 4.4 02:44:42 10° W 02:50:17 28° NNW 02:56:28 10° NNE visible
05 Jun 4.3 22:20:17 10° ESE 22:21:17 11° E 22:22:46 10° E visible
06 Jun 2.5 00:07:24 32° SSW 00:10:22 65° ESE 00:17:13 10° NE visible
06 Jun 3.9 01:55:36 10° W 02:01:31 37° NNW 02:08:08 10° NNE visible
06 Jun 5.0 03:49:27 10° NW 03:54:28 20° N 03:59:52 10° NE visible
06 Jun 3.0 23:19:48 27° SSE 23:22:26 39° ESE 23:28:41 10° NE visible
07 Jun 3.3 01:06:54 10° WSW 01:12:56 51° NW 01:19:53 10° NE visible
07 Jun 4.9 03:00:13 10° WNW 03:05:25 23° NNW 03:11:04 10° NE visible
07 Jun 3.6 22:32:01 18° SE 22:34:42 23° ESE 22:39:47 10° ENE visible
08 Jun 2.7 00:19:07 14° SW 00:24:32 75° NW 00:31:37 10° NE visible
08 Jun 4.6 02:10:57 10° W 02:16:29 27° NNW 02:22:32 10° NNE visible
08 Jun 5.1 04:04:43 10° NW 04:09:49 20° N 04:15:16 10° NE visible
08 Jun 4.1 21:44:31 10° SE 21:47:08 13° ESE 21:49:51 10° ENE visible
08 Jun 2.5 23:31:05 15° SSW 23:36:21 72° ESE 23:43:17 10° NE visible
